Station Historical Data
Daily Summary for May 22, 2017 Units:  Metric    English   Both
« Previous Day
Next Day »
Daily Weekly Monthly Yearly Custom
  High: Low: Average:
Temperature: 16.6 °C 10 °C 14.3 °C
Dew Point: 13.9 °C 6.3 °C 10.1 °C
Humidity: 86% 58% 76%
Wind Speed: 30.6km/h 0km/h 9.7km/h
Wind Gust: 45.1km/h - -
Wind- - SW
Pressure: 1015.5 hPa 1012.4 hPa -
Precipitation: 0 mm    
Historical Graphs
 
 
Tabular Data for May 22, 2017
Time Temperature Dew Point Pressure Wind Wind Speed Wind Gust Humidity Rainfall Rate (Hourly)
00:00 15.9 °C 12.7 °C 1013.8 hPa South 3.2 km/h 16.1 km/h 81% 0 mm
00:05 15.9 °C 12.6 °C 1013.8 hPa SSE 12.9 km/h 19.3 km/h 81% 0 mm
00:10 15.8 °C 12.6 °C 1013.8 hPa SSW 4.8 km/h 12.9 km/h 81% 0 mm
00:15 15.8 °C 12.6 °C 1013.8 hPa SSW 8 km/h 20.9 km/h 81% 0 mm
00:20 15.9 °C 12.9 °C 1013.8 hPa SSW 11.3 km/h 16.1 km/h 82% 0 mm
00:25 16 °C 12.9 °C 1013.4 hPa SSW 8 km/h 16.1 km/h 82% 0 mm
00:30 16.1 °C 12.8 °C 1013.4 hPa SSW 9.7 km/h 20.9 km/h 81% 0 mm
00:35 16.1 °C 12.8 °C 1013.4 hPa South 8 km/h 20.9 km/h 81% 0 mm
00:40 16.3 °C 13 °C 1013.4 hPa South 8 km/h 22.5 km/h 81% 0 mm
00:45 16.3 °C 13 °C 1013.4 hPa SSW 11.3 km/h 19.3 km/h 81% 0 mm
00:50 16.3 °C 13 °C 1013.4 hPa SSW 3.2 km/h 20.9 km/h 81% 0 mm
00:55 16.2 °C 12.9 °C 1013.1 hPa South 4.8 km/h 20.9 km/h 81% 0 mm
01:00 16.2 °C 12.9 °C 1013.4 hPa South 9.7 km/h 19.3 km/h 81% 0 mm
01:05 16.1 °C 12.8 °C 1013.4 hPa South 8 km/h 19.3 km/h 81% 0 mm
01:10 16.1 °C 13 °C 1013.4 hPa South 8 km/h 17.7 km/h 82% 0 mm
01:15 16.1 °C 13 °C 1013.4 hPa South 8 km/h 17.7 km/h 82% 0 mm
01:20 16.1 °C 13 °C 1013.4 hPa South 6.4 km/h 12.9 km/h 82% 0 mm
01:25 16.1 °C 13.1 °C 1013.1 hPa South 6.4 km/h 16.1 km/h 82% 0 mm
01:30 16.2 °C 13.1 °C 1013.4 hPa South 6.4 km/h 19.3 km/h 82% 0 mm
01:35 16.1 °C 13.1 °C 1013.1 hPa South 6.4 km/h 19.3 km/h 82% 0 mm
01:40 16.1 °C 13.1 °C 1013.1 hPa SSW 3.2 km/h 12.9 km/h 82% 0 mm
01:45 16.1 °C 13 °C 1013.1 hPa South 3.2 km/h 11.3 km/h 82% 0 mm
01:50 16.1 °C 13 °C 1013.1 hPa South 4.8 km/h 11.3 km/h 82% 0 mm
01:55 16.1 °C 13.2 °C 1013.1 hPa SSE 4.8 km/h 12.9 km/h 83% 0 mm
02:00 16.2 °C 13.1 °C 1013.1 hPa South 3.2 km/h 9.7 km/h 82% 0 mm
02:05 16.2 °C 13.3 °C 1013.1 hPa South 4.8 km/h 9.7 km/h 83% 0 mm
02:10 16.2 °C 13.3 °C 1013.1 hPa South 4.8 km/h 11.3 km/h 83% 0 mm
02:15 16.3 °C 13.4 °C 1013.4 hPa SSW 6.4 km/h 12.9 km/h 83% 0 mm
02:20 16.3 °C 13.3 °C 1013.4 hPa SSW 6.4 km/h 12.9 km/h 82% 0 mm
02:25 16.4 °C 13.3 °C 1013.1 hPa SSW 4.8 km/h 12.9 km/h 82% 0 mm
02:30 16.4 °C 13.3 °C 1013.1 hPa SSW 6.4 km/h 11.3 km/h 82% 0 mm
02:35 16.4 °C 13.3 °C 1013.1 hPa SSW 4.8 km/h 12.9 km/h 82% 0 mm
02:40 16.5 °C 13.4 °C 1013.1 hPa South 6.4 km/h 14.5 km/h 82% 0 mm
02:45 16.4 °C 13.6 °C 1013.1 hPa SW 6.4 km/h 16.1 km/h 83% 0 mm
02:50 16.4 °C 13.6 °C 1013.1 hPa SSE 9.7 km/h 16.1 km/h 83% 0 mm
02:55 16.4 °C 13.7 °C 1012.8 hPa South 6.4 km/h 16.1 km/h 84% 0 mm
03:00 16.3 °C 13.6 °C 1013.1 hPa SSW 1.6 km/h 14.5 km/h 84% 0 mm
03:05 16.3 °C 13.8 °C 1013.1 hPa South 6.4 km/h 14.5 km/h 85% 0 mm
03:10 16.2 °C 13.7 °C 1013.1 hPa South 6.4 km/h 14.5 km/h 85% 0 mm
03:15 16.2 °C 13.7 °C 1013.1 hPa SE 8 km/h 14.5 km/h 85% 0 mm
03:20 16.1 °C 13.6 °C 1012.8 hPa SSW 8 km/h 17.7 km/h 85% 0 mm
03:25 16.1 °C 13.6 °C 1012.8 hPa South 6.4 km/h 11.3 km/h 85% 0 mm
03:30 16.1 °C 13.6 °C 1012.8 hPa SSW 8 km/h 14.5 km/h 85% 0 mm
03:35 16.1 °C 13.6 °C 1012.8 hPa South 6.4 km/h 14.5 km/h 85% 0 mm
03:40 16.1 °C 13.6 °C 1012.8 hPa South 6.4 km/h 14.5 km/h 85% 0 mm
03:45 16.1 °C 13.6 °C 1012.8 hPa South 4.8 km/h 11.3 km/h 85% 0 mm
03:50 16.2 °C 13.7 °C 1012.8 hPa SSW 4.8 km/h 14.5 km/h 85% 0 mm
03:55 16.3 °C 13.8 °C 1012.8 hPa SSW 4.8 km/h 14.5 km/h 85% 0 mm
04:00 16.3 °C 13.8 °C 1012.8 hPa SSW 4.8 km/h 12.9 km/h 85% 0 mm
04:05 16.4 °C 13.8 °C 1012.8 hPa SSW 4.8 km/h 11.3 km/h 85% 0 mm
04:10 16.4 °C 13.9 °C 1012.8 hPa South 9.7 km/h 12.9 km/h 85% 0 mm
04:15 16.5 °C 13.9 °C 1012.8 hPa SSW 6.4 km/h 11.3 km/h 85% 0 mm
04:20 16.4 °C 13.9 °C 1012.8 hPa South 11.3 km/h 14.5 km/h 85% 0 mm
04:25 16.4 °C 13.9 °C 1012.8 hPa South 6.4 km/h 11.3 km/h 85% 0 mm
04:30 16.3 °C 13.8 °C 1012.8 hPa SSW 8 km/h 14.5 km/h 85% 0 mm
04:35 16.3 °C 13.8 °C 1012.8 hPa SSW 4.8 km/h 14.5 km/h 85% 0 mm
04:40 16.3 °C 13.8 °C 1012.8 hPa SSW 4.8 km/h 12.9 km/h 85% 0 mm
04:45 16.4 °C 13.9 °C 1012.8 hPa SSW 6.4 km/h 16.1 km/h 85% 0 mm
04:50 16.4 °C 13.9 °C 1012.8 hPa SSW 6.4 km/h 16.1 km/h 85% 0 mm
04:55 16.4 °C 13.9 °C 1012.8 hPa SW 3.2 km/h 12.9 km/h 85% 0 mm
05:00 16.5 °C 13.9 °C 1012.4 hPa SSW 3.2 km/h 9.7 km/h 85% 0 mm
05:05 16.5 °C 13.9 °C 1012.8 hPa SSW 4.8 km/h 11.3 km/h 85% 0 mm
05:10 16.4 °C 13.9 °C 1012.8 hPa SSW 4.8 km/h 11.3 km/h 85% 0 mm
05:15 16.4 °C 13.8 °C 1012.8 hPa SSW 6.4 km/h 14.5 km/h 85% 0 mm
05:20 16.4 °C 13.8 °C 1012.4 hPa SSW 4.8 km/h 14.5 km/h 85% 0 mm
05:25 16.4 °C 13.8 °C 1012.4 hPa SSW 8 km/h 9.7 km/h 85% 0 mm
05:30 16.4 °C 13.9 °C 1012.4 hPa South 4.8 km/h 8 km/h 85% 0 mm
05:35 16.4 °C 13.9 °C 1012.8 hPa SSW 4.8 km/h 12.9 km/h 85% 0 mm
05:40 16.4 °C 13.9 °C 1012.8 hPa SSW 4.8 km/h 12.9 km/h 85% 0 mm
05:45 16.5 °C 13.8 °C 1012.8 hPa SE 8 km/h 14.5 km/h 84% 0 mm
05:50 16.5 °C 13.8 °C 1012.8 hPa SSW 3.2 km/h 14.5 km/h 84% 0 mm
05:55 16.4 °C 13.7 °C 1012.8 hPa SSW 1.6 km/h 8 km/h 84% 0 mm
06:00 16.4 °C 13.7 °C 1012.8 hPa SW 6.4 km/h 14.5 km/h 84% 0 mm
06:05 16.4 °C 13.7 °C 1012.8 hPa SSW 4.8 km/h 14.5 km/h 84% 0 mm
06:10 16.4 °C 13.7 °C 1012.8 hPa SSW 6.4 km/h 12.9 km/h 84% 0 mm
06:15 16.4 °C 13.7 °C 1012.8 hPa SSW 4.8 km/h 12.9 km/h 84% 0 mm
06:20 16.5 °C 13.8 °C 1012.8 hPa SSW 4.8 km/h 11.3 km/h 84% 0 mm
06:25 16.4 °C 13.7 °C 1012.8 hPa SSW 4.8 km/h 12.9 km/h 84% 0 mm
06:30 16.5 °C 13.8 °C 1012.8 hPa WSW 6.4 km/h 11.3 km/h 84% 0 mm
06:35 16.5 °C 13.8 °C 1013.1 hPa SSW 4.8 km/h 11.3 km/h 84% 0 mm
06:40 16.6 °C 13.8 °C 1012.8 hPa SSW 4.8 km/h 11.3 km/h 84% 0 mm
06:45 16.6 °C 13.8 °C 1012.8 hPa SW 4.8 km/h 9.7 km/h 84% 0 mm
06:50 16.6 °C 13.9 °C 1012.8 hPa SW 6.4 km/h 12.9 km/h 84% 0 mm
06:55 16.6 °C 13.9 °C 1013.1 hPa SSW 6.4 km/h 14.5 km/h 84% 0 mm
07:00 16.6 °C 13.9 °C 1012.8 hPa Calm   11.3 km/h 84% 0 mm
07:05 16.6 °C 13.8 °C 1012.8 hPa SW 9.7 km/h 14.5 km/h 84% 0 mm
07:10 16.6 °C 13.8 °C 1012.8 hPa SSW 4.8 km/h 17.7 km/h 84% 0 mm
07:15 16.6 °C 13.8 °C 1012.8 hPa SSW 4.8 km/h 17.7 km/h 84% 0 mm
07:20 16.6 °C 13.9 °C 1012.8 hPa SSW 4.8 km/h 16.1 km/h 84% 0 mm
07:25 16.6 °C 13.9 °C 1012.8 hPa SW 6.4 km/h 17.7 km/h 84% 0 mm
07:30 16.6 °C 13.9 °C 1012.8 hPa SW 6.4 km/h 17.7 km/h 84% 0 mm
07:35 16.5 °C 13.8 °C 1012.8 hPa SW 6.4 km/h 12.9 km/h 84% 0 mm
07:40 16.4 °C 13.5 °C 1012.8 hPa WNW 4.8 km/h 12.9 km/h 83% 0 mm
07:45 16.1 °C 13.3 °C 1013.1 hPa West 12.9 km/h 14.5 km/h 84% 0 mm
07:50 15.7 °C 13 °C 1013.1 hPa WSW 11.3 km/h 14.5 km/h 84% 0 mm
07:55 15.4 °C 12.9 °C 1013.1 hPa WSW 11.3 km/h 14.5 km/h 85% 0 mm
08:00 15.2 °C 12.7 °C 1013.1 hPa SSW 3.2 km/h 17.7 km/h 85% 0 mm
08:05 15.2 °C 12.7 °C 1013.1 hPa West 6.4 km/h 11.3 km/h 85% 0 mm
08:10 15.1 °C 12.6 °C 1013.1 hPa WSW 6.4 km/h 17.7 km/h 85% 0 mm
08:15 15.1 °C 12.6 °C 1013.1 hPa SW 6.4 km/h 17.7 km/h 85% 0 mm
08:20 14.9 °C 12.4 °C 1013.1 hPa SW 8 km/h 20.9 km/h 85% 0 mm
08:25 14.6 °C 12.1 °C 1013.4 hPa SSW 6.4 km/h 19.3 km/h 85% 0 mm
08:30 14.4 °C 12.1 °C 1013.1 hPa South 9.7 km/h 16.1 km/h 86% 0 mm
08:35 14.3 °C 11.9 °C 1013.4 hPa WSW 6.4 km/h 16.1 km/h 86% 0 mm
08:40 14.2 °C 11.9 °C 1013.1 hPa SW 8 km/h 19.3 km/h 86% 0 mm
08:45 14.2 °C 11.9 °C 1013.1 hPa SW 6.4 km/h 19.3 km/h 86% 0 mm
08:50 14.3 °C 12 °C 1013.4 hPa SSW 8 km/h 14.5 km/h 86% 0 mm
08:55 14.2 °C 11.7 °C 1013.4 hPa WSW 6.4 km/h 20.9 km/h 85% 0 mm
09:00 13.9 °C 11.4 °C 1013.4 hPa SW 11.3 km/h 19.3 km/h 85% 0 mm
09:05 13.9 °C 11.4 °C 1013.4 hPa SW 17.7 km/h 29 km/h 85% 0 mm
09:10 13.9 °C 11.2 °C 1013.4 hPa SW 12.9 km/h 29 km/h 84% 0 mm
09:15 13.9 °C 11.1 °C 1013.4 hPa SSW 11.3 km/h 27.4 km/h 83% 0 mm
09:20 13.9 °C 11.1 °C 1013.4 hPa SW 16.1 km/h 29 km/h 83% 0 mm
09:25 14.1 °C 11.2 °C 1013.4 hPa SW 22.5 km/h 22.5 km/h 83% 0 mm
09:30 14.2 °C 11.2 °C 1013.4 hPa SW 11.3 km/h 32.2 km/h 82% 0 mm
09:35 14.4 °C 11.3 °C 1013.4 hPa SSW 8 km/h 30.6 km/h 82% 0 mm
09:40 14.7 °C 11.3 °C 1013.4 hPa SW 12.9 km/h 30.6 km/h 80% 0 mm
09:45 14.3 °C 10.9 °C 1013.4 hPa SW 12.9 km/h 29 km/h 80% 0 mm
09:50 14.2 °C 11 °C 1013.4 hPa SW 14.5 km/h 29 km/h 81% 0 mm
09:55 14.3 °C 10.9 °C 1013.4 hPa SW 12.9 km/h 33.8 km/h 80% 0 mm
10:00 14.3 °C 10.9 °C 1013.4 hPa SW 12.9 km/h 33.8 km/h 80% 0 mm
10:05 14.6 °C 10.9 °C 1013.4 hPa SW 29 km/h 29 km/h 79% 0 mm
10:10 14.6 °C 10.8 °C 1013.4 hPa SW 12.9 km/h 29 km/h 78% 0 mm
10:15 14.3 °C 10.5 °C 1013.8 hPa SW 14.5 km/h 29 km/h 78% 0 mm
10:20 14.3 °C 10.5 °C 1013.8 hPa WSW 9.7 km/h 20.9 km/h 78% 0 mm
10:25 14.3 °C 10.6 °C 1013.8 hPa West 11.3 km/h 24.1 km/h 78% 0 mm
10:30 14.8 °C 10.8 °C 1013.8 hPa WSW 19.3 km/h 30.6 km/h 77% 0 mm
10:35 14.5 °C 10.3 °C 1013.8 hPa SW 17.7 km/h 29 km/h 76% 0 mm
10:40 14.3 °C 10.3 °C 1013.8 hPa WSW 16.1 km/h 29 km/h 77% 0 mm
10:45 14.4 °C 10.4 °C 1013.8 hPa WSW 14.5 km/h 30.6 km/h 77% 0 mm
10:50 14.7 °C 10.5 °C 1014.1 hPa WSW 14.5 km/h 30.6 km/h 76% 0 mm
10:55 14.6 °C 10.6 °C 1014.1 hPa WSW 14.5 km/h 27.4 km/h 77% 0 mm
11:00 14.7 °C 10.5 °C 1014.1 hPa WSW 11.3 km/h 25.7 km/h 76% 0 mm
11:05 14.7 °C 10.5 °C 1014.4 hPa WSW 20.9 km/h 40.2 km/h 76% 0 mm
11:10 14.3 °C 10.1 °C 1014.4 hPa West 12.9 km/h 35.4 km/h 76% 0 mm
11:15 14.2 °C 10 °C 1014.4 hPa SW 17.7 km/h 35.4 km/h 76% 0 mm
11:20 13.9 °C 9.9 °C 1014.4 hPa WSW 16.1 km/h 33.8 km/h 77% 0 mm
11:25 13.4 °C 9.5 °C 1014.4 hPa SW 16.1 km/h 33.8 km/h 77% 0 mm
11:30 13.2 °C 9.3 °C 1014.8 hPa WSW 17.7 km/h 33.8 km/h 77% 0 mm
11:35 13.2 °C 9.2 °C 1014.4 hPa South 9.7 km/h 32.2 km/h 77% 0 mm
11:40 13.3 °C 9.5 °C 1014.4 hPa West 14.5 km/h 25.7 km/h 78% 0 mm
11:45 13.4 °C 9.1 °C 1014.4 hPa WSW 14.5 km/h 27.4 km/h 75% 0 mm
11:50 13.2 °C 9.1 °C 1014.4 hPa WSW 17.7 km/h 32.2 km/h 76% 0 mm
11:55 12.8 °C 8.8 °C 1014.4 hPa SW 6.4 km/h 33.8 km/h 77% 0 mm
12:00 12.8 °C 8.9 °C 1014.4 hPa WSW 9.7 km/h 30.6 km/h 77% 0 mm
12:05 12.6 °C 8.6 °C 1014.8 hPa WSW 25.7 km/h 35.4 km/h 77% 0 mm
12:10 12.5 °C 8.8 °C 1014.8 hPa NW 17.7 km/h 30.6 km/h 78% 0 mm
12:15 12.8 °C 9.1 °C 1014.8 hPa WSW 16.1 km/h 30.6 km/h 78% 0 mm
12:20 12.9 °C 8.8 °C 1014.8 hPa WSW 11.3 km/h 27.4 km/h 76% 0 mm
12:25 13.2 °C 8.8 °C 1014.8 hPa WSW 12.9 km/h 29 km/h 75% 0 mm
12:30 13.5 °C 8.8 °C 1014.8 hPa WSW 12.9 km/h 29 km/h 73% 0 mm
12:35 14.1 °C 9.7 °C 1014.8 hPa WSW 12.9 km/h 25.7 km/h 75% 0 mm
12:40 14.3 °C 8.9 °C 1014.8 hPa WSW 12.9 km/h 27.4 km/h 70% 0 mm
12:45 13.6 °C 8.4 °C 1014.8 hPa West 8 km/h 37 km/h 71% 0 mm
12:50 13.7 °C 8.9 °C 1015.1 hPa WSW 19.3 km/h 32.2 km/h 73% 0 mm
12:55 13.7 °C 8.9 °C 1015.1 hPa SSW 25.7 km/h 38.6 km/h 73% 0 mm
13:00 13.4 °C 8.7 °C 1014.8 hPa West 12.9 km/h 29 km/h 73% 0 mm
13:05 13.6 °C 9.1 °C 1014.8 hPa WSW 27.4 km/h 32.2 km/h 74% 0 mm
13:10 13.6 °C 8.8 °C 1014.8 hPa SW 27.4 km/h 43.5 km/h 73% 0 mm
13:15 13.4 °C 8.7 °C 1014.8 hPa WSW 19.3 km/h 43.5 km/h 73% 0 mm
13:20 13.7 °C 8.7 °C 1014.8 hPa WSW 19.3 km/h 37 km/h 72% 0 mm
13:25 13.9 °C 9 °C 1014.8 hPa SW 17.7 km/h 37 km/h 72% 0 mm
13:30 14.2 °C 9.2 °C 1014.8 hPa SW 17.7 km/h 35.4 km/h 72% 0 mm
13:35 14.3 °C 9.1 °C 1014.8 hPa WSW 17.7 km/h 35.4 km/h 71% 0 mm
13:40 14.2 °C 9.1 °C 1014.4 hPa SSW 11.3 km/h 35.4 km/h 71% 0 mm
13:45 14.1 °C 8.7 °C 1014.4 hPa SW 19.3 km/h 40.2 km/h 70% 0 mm
13:50 14.1 °C 8.4 °C 1014.8 hPa SW 22.5 km/h 37 km/h 69% 0 mm
13:55 13.8 °C 8.4 °C 1014.8 hPa West 30.6 km/h 30.6 km/h 70% 0 mm
14:00 13.6 °C 8.7 °C 1014.8 hPa SW 24.1 km/h 33.8 km/h 72% 0 mm
14:05 13.4 °C 8.2 °C 1014.8 hPa West 8 km/h 30.6 km/h 71% 0 mm
14:10 13.7 °C 8.3 °C 1015.1 hPa West 17.7 km/h 33.8 km/h 70% 0 mm
14:15 14 °C 8.2 °C 1015.1 hPa WSW 17.7 km/h 38.6 km/h 68% 0 mm
14:20 13.9 °C 7.9 °C 1014.8 hPa WSW 19.3 km/h 38.6 km/h 67% 0 mm
14:25 14.3 °C 8.7 °C 1014.8 hPa WSW 19.3 km/h 35.4 km/h 69% 0 mm
14:30 14.8 °C 8.3 °C 1014.8 hPa WSW 14.5 km/h 35.4 km/h 65% 0 mm
14:35 14.6 °C 7.7 °C 1014.8 hPa WSW 14.5 km/h 33.8 km/h 63% 0 mm
14:40 14.4 °C 7.5 °C 1014.8 hPa WSW 12.9 km/h 35.4 km/h 63% 0 mm
14:45 14.4 °C 7.7 °C 1014.8 hPa WSW 20.9 km/h 38.6 km/h 64% 0 mm
14:50 14.3 °C 7.6 °C 1015.1 hPa WSW 19.3 km/h 38.6 km/h 64% 0 mm
14:55 14.6 °C 8.8 °C 1015.1 hPa WSW 17.7 km/h 35.4 km/h 68% 0 mm
15:00 14.8 °C 8.1 °C 1015.1 hPa WSW 12.9 km/h 32.2 km/h 64% 0 mm
15:05 14.8 °C 8.5 °C 1014.8 hPa SSW 19.3 km/h 37 km/h 66% 0 mm
15:10 14.9 °C 8.4 °C 1015.1 hPa SW 11.3 km/h 30.6 km/h 65% 0 mm
15:15 14.4 °C 7.5 °C 1015.1 hPa WSW 17.7 km/h 37 km/h 63% 0 mm
15:20 14.6 °C 7.9 °C 1015.1 hPa WSW 17.7 km/h 45.1 km/h 64% 0 mm
15:25 14.3 °C 8.1 °C 1015.1 hPa WSW 17.7 km/h 45.1 km/h 66% 0 mm
15:30 14.3 °C 7.6 °C 1015.1 hPa West 22.5 km/h 40.2 km/h 64% 0 mm
15:35 14.3 °C 8.1 °C 1015.1 hPa West 11.3 km/h 29 km/h 66% 0 mm
15:40 14.4 °C 8.2 °C 1015.1 hPa WNW 14.5 km/h 32.2 km/h 66% 0 mm
15:45 14.2 °C 7.9 °C 1015.1 hPa SW 25.7 km/h 33.8 km/h 66% 0 mm
15:50 14.2 °C 7.9 °C 1015.1 hPa WSW 17.7 km/h 35.4 km/h 66% 0 mm
15:55 13.9 °C 7.8 °C 1015.1 hPa SW 17.7 km/h 38.6 km/h 67% 0 mm
16:00 14.1 °C 7.8 °C 1015.1 hPa West 22.5 km/h 27.4 km/h 66% 0 mm
16:05 14.3 °C 7.8 °C 1015.1 hPa WSW 11.3 km/h 29 km/h 65% 0 mm
16:10 14.4 °C 7.7 °C 1015.1 hPa SW 9.7 km/h 32.2 km/h 64% 0 mm
16:15 14.6 °C 7.9 °C 1015.1 hPa West 11.3 km/h 32.2 km/h 64% 0 mm
16:20 14.2 °C 7.2 °C 1015.1 hPa WSW 16.1 km/h 33.8 km/h 63% 0 mm
16:25 14.3 °C 7.3 °C 1015.1 hPa WSW 17.7 km/h 33.8 km/h 63% 0 mm
16:30 14.6 °C 7.7 °C 1015.1 hPa WSW 16.1 km/h 33.8 km/h 63% 0 mm
16:35 14.6 °C 7.1 °C 1015.1 hPa WSW 19.3 km/h 35.4 km/h 61% 0 mm
16:40 14.6 °C 7.1 °C 1015.1 hPa SW 25.7 km/h 30.6 km/h 61% 0 mm
16:45 14.2 °C 6.6 °C 1014.8 hPa WSW 6.4 km/h 30.6 km/h 60% 0 mm
16:50 14.5 °C 7.1 °C 1014.8 hPa WSW 17.7 km/h 33.8 km/h 61% 0 mm
16:55 14.3 °C 6.8 °C 1015.1 hPa WSW 17.7 km/h 33.8 km/h 61% 0 mm
17:00 14.5 °C 6.8 °C 1014.8 hPa WSW 16.1 km/h 35.4 km/h 60% 0 mm
17:05 14.3 °C 6.7 °C 1014.8 hPa WSW 14.5 km/h 35.4 km/h 60% 0 mm
17:10 14.6 °C 6.4 °C 1014.8 hPa WSW 12.9 km/h 30.6 km/h 58% 0 mm
17:15 14.3 °C 6.4 °C 1014.8 hPa West 19.3 km/h 29 km/h 59% 0 mm
17:20 14.2 °C 6.3 °C 1014.8 hPa WNW 11.3 km/h 33.8 km/h 59% 0 mm
17:25 14.1 °C 6.4 °C 1014.8 hPa WSW 16.1 km/h 30.6 km/h 60% 0 mm
17:30 14 °C 6.6 °C 1014.8 hPa WSW 9.7 km/h 25.7 km/h 61% 0 mm
17:35 14 °C 6.3 °C 1014.8 hPa WSW 11.3 km/h 30.6 km/h 60% 0 mm
17:40 14.2 °C 7 °C 1014.8 hPa WSW 14.5 km/h 25.7 km/h 62% 0 mm
17:45 14.2 °C 6.7 °C 1015.1 hPa WSW 12.9 km/h 27.4 km/h 61% 0 mm
17:50 14.2 °C 7.4 °C 1015.1 hPa WSW 12.9 km/h 27.4 km/h 64% 0 mm
17:55 14 °C 6.8 °C 1015.1 hPa WSW 12.9 km/h 27.4 km/h 62% 0 mm
18:00 13.8 °C 7.1 °C 1015.1 hPa SW 20.9 km/h 25.7 km/h 64% 0 mm
18:05 13.6 °C 7.1 °C 1015.1 hPa WSW 12.9 km/h 22.5 km/h 65% 0 mm
18:10 13.6 °C 7.2 °C 1015.1 hPa SW 9.7 km/h 22.5 km/h 65% 0 mm
18:15 13.6 °C 7.1 °C 1015.1 hPa WSW 12.9 km/h 30.6 km/h 65% 0 mm
18:20 13.4 °C 7.2 °C 1015.1 hPa WSW 12.9 km/h 30.6 km/h 66% 0 mm
18:25 13.4 °C 7 °C 1015.1 hPa WSW 12.9 km/h 29 km/h 65% 0 mm
18:30 13.4 °C 7 °C 1015.1 hPa West 9.7 km/h 30.6 km/h 65% 0 mm
18:35 13.2 °C 7 °C 1015.1 hPa SW 9.7 km/h 22.5 km/h 66% 0 mm
18:40 13.2 °C 6.9 °C 1015.1 hPa West 3.2 km/h 24.1 km/h 66% 0 mm
18:45 13.3 °C 7.3 °C 1015.1 hPa WSW 11.3 km/h 25.7 km/h 67% 0 mm
18:50 13.2 °C 6.9 °C 1015.1 hPa WSW 12.9 km/h 29 km/h 66% 0 mm
18:55 13.2 °C 7.2 °C 1015.5 hPa WSW 16.1 km/h 20.9 km/h 67% 0 mm
19:00 13 °C 7 °C 1015.5 hPa West 16.1 km/h 33.8 km/h 67% 0 mm
19:05 13.1 °C 7.1 °C 1015.5 hPa WSW 12.9 km/h 33.8 km/h 67% 0 mm
19:10 13.1 °C 7.1 °C 1015.5 hPa WSW 11.3 km/h 24.1 km/h 67% 0 mm
19:15 13 °C 7 °C 1015.5 hPa WSW 9.7 km/h 20.9 km/h 67% 0 mm
19:20 13.1 °C 7.1 °C 1015.5 hPa WSW 8 km/h 24.1 km/h 67% 0 mm
19:25 13.1 °C 7.1 °C 1015.5 hPa WSW 9.7 km/h 24.1 km/h 67% 0 mm
19:30 13 °C 7 °C 1015.5 hPa SW 11.3 km/h 20.9 km/h 67% 0 mm
19:35 12.9 °C 6.9 °C 1015.5 hPa WSW 8 km/h 17.7 km/h 67% 0 mm
19:40 12.8 °C 7.1 °C 1015.5 hPa WSW 8 km/h 17.7 km/h 68% 0 mm
19:45 12.8 °C 7 °C 1015.5 hPa SSW 6.4 km/h 19.3 km/h 68% 0 mm
19:50 12.8 °C 7 °C 1015.5 hPa SW 4.8 km/h 16.1 km/h 68% 0 mm
19:55 12.7 °C 6.9 °C 1015.5 hPa WSW 4.8 km/h 16.1 km/h 68% 0 mm
20:00 12.7 °C 6.9 °C 1015.5 hPa SW 9.7 km/h 16.1 km/h 68% 0 mm
20:05 12.6 °C 7.1 °C 1015.5 hPa WNW 4.8 km/h 16.1 km/h 69% 0 mm
20:10 12.5 °C 6.9 °C 1015.5 hPa SW 8 km/h 19.3 km/h 69% 0 mm
20:15 12.4 °C 7.1 °C 1015.5 hPa WSW 8 km/h 19.3 km/h 70% 0 mm
20:20 12.3 °C 7 °C 1015.5 hPa WSW 8 km/h 14.5 km/h 70% 0 mm
20:25 12.3 °C 6.9 °C 1015.5 hPa WSW 6.4 km/h 14.5 km/h 70% 0 mm
20:30 12.2 °C 7.1 °C 1015.5 hPa SW 4.8 km/h 8 km/h 71% 0 mm
20:35 12.1 °C 6.9 °C 1015.5 hPa SSW 4.8 km/h 12.9 km/h 71% 0 mm
20:40 12 °C 7.1 °C 1015.5 hPa West 8 km/h 12.9 km/h 72% 0 mm
20:45 11.9 °C 7 °C 1015.5 hPa WSW 6.4 km/h 12.9 km/h 72% 0 mm
20:50 11.8 °C 7.1 °C 1015.5 hPa WSW 4.8 km/h 11.3 km/h 73% 0 mm
20:55 11.7 °C 7.1 °C 1015.5 hPa WSW 4.8 km/h 9.7 km/h 73% 0 mm
21:00 11.7 °C 7.2 °C 1015.5 hPa SW 8 km/h 11.3 km/h 74% 0 mm
21:05 11.7 °C 7.2 °C 1015.5 hPa WSW 1.6 km/h 11.3 km/h 74% 0 mm
21:10 11.7 °C 7.2 °C 1015.5 hPa WSW 4.8 km/h 11.3 km/h 74% 0 mm
21:15 11.6 °C 7.1 °C 1015.5 hPa WSW 4.8 km/h 9.7 km/h 74% 0 mm
21:20 11.6 °C 7.1 °C 1015.5 hPa WSW 3.2 km/h 8 km/h 74% 0 mm
21:25 11.6 °C 7.1 °C 1015.5 hPa SW 3.2 km/h 9.7 km/h 74% 0 mm
21:30 11.6 °C 7.1 °C 1015.5 hPa SW 3.2 km/h 9.7 km/h 74% 0 mm
21:35 11.3 °C 7.1 °C 1015.5 hPa SW 1.6 km/h 6.4 km/h 75% 0 mm
21:40 11.2 °C 7.2 °C 1015.5 hPa SW 3.2 km/h 6.4 km/h 76% 0 mm
21:45 11.2 °C 7.1 °C 1015.5 hPa SW 3.2 km/h 6.4 km/h 76% 0 mm
21:50 11.1 °C 7.1 °C 1015.5 hPa SW 3.2 km/h 6.4 km/h 76% 0 mm
21:55 11.1 °C 7.2 °C 1015.5 hPa SW 1.6 km/h 4.8 km/h 77% 0 mm
22:00 10.9 °C 7.1 °C 1015.5 hPa SW 1.6 km/h 8 km/h 77% 0 mm
22:05 11.2 °C 7.3 °C 1015.5 hPa SW 3.2 km/h 8 km/h 77% 0 mm
22:10 11.2 °C 7.3 °C 1015.5 hPa WSW 1.6 km/h 6.4 km/h 77% 0 mm
22:15 11.2 °C 7.3 °C 1015.5 hPa Calm   4.8 km/h 77% 0 mm
22:20 10.9 °C 7.3 °C 1015.5 hPa Calm   4.8 km/h 78% 0 mm
22:25 10.9 °C 7.3 °C 1015.5 hPa Calm   4.8 km/h 78% 0 mm
22:30 11.1 °C 7.4 °C 1015.5 hPa Calm   6.4 km/h 78% 0 mm
22:35 11 °C 7.3 °C 1015.1 hPa Calm   4.8 km/h 78% 0 mm
22:40 11 °C 7.3 °C 1015.1 hPa Calm   4.8 km/h 78% 0 mm
22:45 11 °C 7.3 °C 1015.5 hPa Calm   4.8 km/h 78% 0 mm
22:50 11.1 °C 7.2 °C 1015.1 hPa Calm   4.8 km/h 77% 0 mm
22:55 10.9 °C 7.2 °C 1015.5 hPa WSW 1.6 km/h 4.8 km/h 78% 0 mm
23:00 10.8 °C 7.2 °C 1015.5 hPa WSW 1.6 km/h 4.8 km/h 78% 0 mm
23:05 10.8 °C 7.2 °C 1015.1 hPa WSW 1.6 km/h 4.8 km/h 78% 0 mm
23:10 10.8 °C 7.2 °C 1015.5 hPa WSW 1.6 km/h 3.2 km/h 78% 0 mm
23:20 11 °C 7.1 °C 1015.1 hPa Calm   3.2 km/h 77% 0 mm
23:25 10.8 °C 7.1 °C 1015.1 hPa Calm     78% 0 mm
23:30 10.7 °C 7 °C 1015.1 hPa Calm     78% 0 mm
23:35 10.4 °C 6.8 °C 1015.1 hPa Calm     78% 0 mm
23:40 10.2 °C 6.7 °C 1015.1 hPa Calm     79% 0 mm
23:45 10.1 °C 6.8 °C 1015.1 hPa Calm     80% 0 mm
23:50 10.1 °C 6.6 °C 1015.1 hPa Calm     79% 0 mm
23:55 10 °C 6.5 °C 1015.1 hPa Calm     79% 0 mm
Buffalo, New York, USA
Compliments of Weather Underground - 2.5 mb